Upstream stations:
Downstream station:
SHEF ID: AMAT2 Canadian Rv nr Amarillo, TX
STATION TYPE:
Regulating: Stage = 13.00, Flow = 87096
STAGE RIV-FLOW WTR-TEMP CONDUCT BAT-LOAD
ft cfs F umho/cm volt
Ccp-Rev Ccp-Rev Ccp-Rev Ccp-Rev Ccp-Rev
(US/Central)
05/29 00:00 0.57 0 66.04 5 12.73
05/29 01:00 0.57 0 65.43 5 12.73
05/29 02:00 0.58 0 64.96 5 12.73
05/29 03:00 0.58 0 64.96 5 12.65
05/29 04:00 0.58 0 64.90 5 12.65
05/29 05:00 0.58 0 64.65 5 12.65
05/29 06:00 0.57 0 64.04 5 12.65
05/29 07:00 0.57 0 63.00 5 12.65
05/29 08:00 0.56 0 62.01 5 12.73
05/29 09:00 0.56 0 61.93 5 12.81
05/29 10:00 0.56 0 62.35 5 13.05
05/29 11:00 0.56 0 63.21 5 13.05
05/29 12:00 0.56 0 64.89 5 13.05
05/29 13:00 0.56 0 66.70 5 13.05
05/29 14:00 0.56 0 68.09 5 12.97
05/29 15:00 0.52 0 67.14 5 12.97
05/29 16:00 0.54 0 66.00 5 12.97
05/29 17:00 0.54 0 65.10 5 12.89
05/29 18:00 0.53 0 64.33 5 12.81
05/29 19:00 0.51 0 63.95 5 12.81
05/29 20:00 0.51 0 63.70 5 12.81
05/29 21:00 0.51 0 63.48 5 12.81
05/29 22:00 0.54 0 63.16 5 12.73
05/29 23:00 0.54 0 62.71 5 12.73